Flag for Russia Weather past 2 weeks in Novorossiysk, Russia

Now
68 °F

Passing clouds.


Feels Like: 68 °F
Forecast: 48 / 68 °F
Wind: 3 mph from East

Location: Anapa / Vitiazevo


UV Index: 3 (Moderate)

Visibility: N/A


Pressure: 30.01 "Hg

Humidity: 40%

Dew point: 43 °F

Location of NovorossiyskLocation

Historic Weather in Novorossiysk

°F

Novorossiysk temperature yesterday

Maximum temperature yesterday: 61 °F (at 9:30 AM)
Minimum temperature yesterday: 50 °F (at 11:00 PM)
Average temperature yesterday: 57 °F

Past Weeks' High & Low Weather Summary

 TemperatureHumidityPressure
High77 °F (Apr 17, 3:30 PM)100% (Apr 14, 7:30 AM)30.27 "Hg (Apr 14, 7:30 AM)
Low32 °F (Apr 7, 4:00 AM)17% (Apr 7, 10:30 AM)29.71 "Hg (Apr 18, 2:30 PM)
Average55 °F68%29.96 "Hg
* Reported Apr 6 1:00 PM — Apr 21 1:00 PM, Novorossiysk, Weather by CustomWeather, © 2014

Note: Actual official high and low records may vary slightly from our data, if they occured in-between our weather recording intervals... More about our weather records

Advertising

Historic Weather Conditions — Data for Previous 24 hours

 ConditionsComfort  
Time TempWeatherWind HumidityBarometerVisibility
1:00 PM
Apr 21
66 °FPassing clouds.6 mph40%30.01 "HgN/A
12:30 PM66 °FPassing clouds.6 mph46%30.01 "HgN/A
12:00 PM64 °FPassing clouds.6 mph49%30.01 "HgN/A
11:30 AM63 °FPassing clouds.6 mph52%30.04 "HgN/A
11:00 AM61 °FPassing clouds.3 mph63%30.04 "HgN/A
10:30 AM59 °FPassing clouds.3 mph77%30.04 "HgN/A
10:00 AM57 °FSunny.1 mph77%30.04 "Hg10 mi
9:30 AM57 °FSunny.1 mph77%30.01 "Hg10 mi
9:00 AM57 °FPassing clouds.3 mph77%30.01 "HgN/A
8:30 AM55 °FSunny.1 mph82%30.01 "Hg10 mi
8:00 AM50 °FSunny.3 mph94%30.01 "Hg10 mi
7:30 AM45 °FPassing clouds.3 mph93%30.01 "HgN/A
6:30 AM41 °FClear.6 mph100%29.98 "Hg10 mi
6:00 AM41 °FClear.6 mph100%29.98 "Hg10 mi
5:00 AM43 °FClear.6 mph93%29.98 "Hg10 mi
4:00 AM43 °FClear.6 mph93%29.98 "Hg10 mi
3:00 AM46 °FClear.8 mph93%29.98 "Hg10 mi
2:00 AM50 °FClear.8 mph88%29.98 "Hg10 mi
1:00 AM50 °FClear.8 mph88%29.98 "Hg10 mi
12:00 AM50 °FClear.10 mph94%29.98 "Hg10 mi
11:00 PM
Apr 20
50 °FClear.8 mph88%29.98 "Hg10 mi
10:00 PM52 °FClear.8 mph82%29.98 "Hg10 mi
9:30 PM54 °FClear.8 mph82%29.98 "Hg10 mi
9:00 PM54 °FPartly sunny.8 mph88%29.98 "HgN/A
8:30 PM55 °FPartly sunny.13 mph88%29.98 "HgN/A
8:00 PM55 °FPartly sunny.13 mph88%29.98 "HgN/A
7:30 PM55 °FPartly sunny.13 mph82%29.98 "HgN/A
7:00 PM55 °FPartly sunny.8 mph82%29.98 "HgN/A
6:30 PM55 °FPartly sunny.13 mph82%29.98 "HgN/A
6:00 PM57 °FBroken clouds.13 mph77%29.98 "HgN/A
5:30 PM55 °FSprinkles. Partly sunny.13 mph88%29.98 "HgN/A
5:00 PM55 °FSprinkles. Partly sunny.13 mph88%29.98 "HgN/A
4:30 PM57 °FSprinkles. Partly sunny.15 mph77%29.98 "HgN/A
4:00 PM59 °FBroken clouds.17 mph77%29.95 "HgN/A
3:30 PM59 °FPartly sunny.15 mph82%29.95 "HgN/A
3:00 PM59 °FBroken clouds.13 mph72%29.98 "HgN/A
2:30 PM61 °FBroken clouds.13 mph68%29.95 "HgN/A
2:00 PM59 °FBroken clouds.17 mph77%29.95 "HgN/A
Weather by CustomWeather, © 2014

See weather overview